TimeCST,TemperatureF,Dew PointF,Humidity,Sea Level PressureIn,VisibilityMPH,Wind Direction,Wind SpeedMPH,Gust SpeedMPH,PrecipitationIn,Events,Conditions,WindDirDegrees,DateUTC
12:14 AM,46.4,21.2,37,29.93,10.0,SSE,16.1,25.3,N/A,,Overcast,160,2013-11-20 06:14:00
12:34 AM,46.4,21.2,37,29.92,10.0,SSE,20.7,33.4,N/A,,Overcast,160,2013-11-20 06:34:00
12:54 AM,46.4,21.2,37,29.93,10.0,SSE,19.6,31.1,N/A,,Overcast,160,2013-11-20 06:54:00
1:14 AM,46.4,21.2,37,29.93,10.0,SSE,19.6,28.8,N/A,,Overcast,160,2013-11-20 07:14:00
1:34 AM,46.4,21.2,37,29.92,10.0,SSE,21.9,27.6,N/A,,Overcast,160,2013-11-20 07:34:00
1:54 AM,46.4,21.2,37,29.92,10.0,SSE,19.6,28.8,N/A,,Overcast,160,2013-11-20 07:54:00
2:14 AM,46.4,21.2,37,29.93,10.0,South,18.4,27.6,N/A,,Overcast,170,2013-11-20 08:14:00
2:34 AM,46.4,21.2,37,29.93,10.0,SSE,19.6,28.8,N/A,,Overcast,160,2013-11-20 08:34:00
2:54 AM,46.4,21.2,37,29.93,10.0,SSE,20.7,29.9,N/A,,Overcast,160,2013-11-20 08:54:00
3:14 AM,46.4,21.2,37,29.92,10.0,SSE,18.4,27.6,N/A,,Overcast,160,2013-11-20 09:14:00
3:34 AM,46.4,21.2,37,29.92,10.0,SSE,20.7,26.5,N/A,,Overcast,160,2013-11-20 09:34:00
3:54 AM,46.4,21.2,37,29.91,10.0,SSE,16.1,27.6,N/A,,Overcast,160,2013-11-20 09:54:00
4:14 AM,46.4,19.4,34,29.91,10.0,SSE,19.6,27.6,N/A,,Overcast,160,2013-11-20 10:14:00
4:34 AM,46.4,19.4,34,29.90,10.0,SSE,15.0,27.6,N/A,,Overcast,160,2013-11-20 10:34:00
4:54 AM,46.4,19.4,34,29.91,10.0,SSE,17.3,24.2,N/A,,Overcast,160,2013-11-20 10:54:00
5:14 AM,46.4,19.4,34,29.90,10.0,SSE,16.1,25.3,N/A,,Overcast,160,2013-11-20 11:14:00
5:34 AM,46.4,19.4,34,29.90,10.0,SSE,20.7,27.6,N/A,,Overcast,150,2013-11-20 11:34:00
5:54 AM,44.6,19.4,37,29.90,10.0,SSE,19.6,26.5,N/A,,Overcast,160,2013-11-20 11:54:00
6:14 AM,44.6,17.6,34,29.90,10.0,SSE,20.7,24.2,N/A,,Overcast,160,2013-11-20 12:14:00
6:34 AM,46.4,17.6,32,29.90,10.0,SSE,18.4,28.8,N/A,,Overcast,160,2013-11-20 12:34:00
6:54 AM,46.4,17.6,32,29.89,10.0,SSE,20.7,28.8,N/A,,Overcast,150,2013-11-20 12:54:00
7:14 AM,44.6,17.6,34,29.90,10.0,SSE,21.9,31.1,N/A,,Overcast,160,2013-11-20 13:14:00
7:34 AM,44.6,17.6,34,29.91,10.0,SSE,16.1,26.5,N/A,,Overcast,150,2013-11-20 13:34:00
7:54 AM,44.6,19.4,37,29.92,10.0,SSE,17.3,26.5,N/A,,Overcast,160,2013-11-20 13:54:00
8:14 AM,44.6,19.4,37,29.93,10.0,SSE,21.9,26.5,N/A,,Overcast,160,2013-11-20 14:14:00
8:34 AM,44.6,21.2,39,29.93,10.0,SSE,15.0,21.9,N/A,,Overcast,160,2013-11-20 14:34:00
8:54 AM,44.6,21.2,39,29.94,10.0,SSE,16.1,24.2,N/A,,Overcast,150,2013-11-20 14:54:00
9:14 AM,44.6,23.0,43,29.94,10.0,SSE,13.8,24.2,N/A,,Overcast,160,2013-11-20 15:14:00
9:34 AM,44.6,23.0,43,29.95,10.0,SSE,18.4,25.3,N/A,,Overcast,160,2013-11-20 15:34:00
9:54 AM,44.6,24.8,46,29.95,10.0,SSE,16.1,29.9,N/A,,Overcast,160,2013-11-20 15:54:00
10:14 AM,44.6,24.8,46,29.95,10.0,SSE,18.4,24.2,N/A,,Overcast,160,2013-11-20 16:14:00
10:34 AM,44.6,24.8,46,29.95,10.0,SSE,16.1,24.2,N/A,,Overcast,160,2013-11-20 16:34:00
10:54 AM,44.6,24.8,46,29.95,10.0,SSE,15.0,23.0,N/A,,Overcast,160,2013-11-20 16:54:00
11:14 AM,44.6,24.8,46,29.94,10.0,South,17.3,-,N/A,,Overcast,170,2013-11-20 17:14:00
11:34 AM,44.6,26.6,49,29.94,10.0,SSE,16.1,25.3,N/A,,Overcast,160,2013-11-20 17:34:00
11:54 AM,44.6,26.6,49,29.93,10.0,SSE,15.0,24.2,N/A,,Overcast,160,2013-11-20 17:54:00
12:14 PM,44.6,26.6,49,29.93,10.0,SSE,17.3,21.9,N/A,,Overcast,160,2013-11-20 18:14:00
12:34 PM,44.6,26.6,49,29.92,10.0,SSE,18.4,-,N/A,,Overcast,160,2013-11-20 18:34:00
12:53 PM,44.6,28.4,53,29.92,10.0,SSE,17.3,-,N/A,,Overcast,160,2013-11-20 18:53:00
1:14 PM,44.6,28.4,53,29.92,10.0,SSE,16.1,21.9,N/A,,Overcast,160,2013-11-20 19:14:00
1:34 PM,44.6,28.4,53,29.91,10.0,SSE,16.1,20.7,N/A,,Overcast,160,2013-11-20 19:34:00
1:54 PM,42.8,28.4,57,29.91,10.0,SSE,16.1,-,N/A,,Overcast,160,2013-11-20 19:54:00
2:14 PM,42.8,30.2,61,29.91,10.0,SSE,15.0,24.2,N/A,,Mostly Cloudy,150,2013-11-20 20:14:00
2:34 PM,42.8,30.2,61,29.91,10.0,SE,17.3,21.9,N/A,,Overcast,140,2013-11-20 20:34:00
2:54 PM,42.8,30.2,61,29.91,10.0,SSE,12.7,-,N/A,,Overcast,150,2013-11-20 20:54:00
3:14 PM,41.0,30.2,65,29.92,10.0,SE,13.8,19.6,N/A,,Overcast,140,2013-11-20 21:14:00
3:34 PM,41.0,30.2,65,29.92,10.0,SE,13.8,-,N/A,,Overcast,140,2013-11-20 21:34:00
3:54 PM,41.0,30.2,65,29.92,7.0,SE,11.5,-,N/A,,Overcast,130,2013-11-20 21:54:00
4:14 PM,41.0,30.2,65,29.92,7.0,SE,11.5,-,N/A,,Overcast,140,2013-11-20 22:14:00
4:34 PM,39.2,30.2,70,29.92,7.0,SE,12.7,-,N/A,,Overcast,140,2013-11-20 22:34:00
4:54 PM,39.2,30.2,70,29.93,7.0,SE,11.5,19.6,N/A,,Overcast,140,2013-11-20 22:54:00
5:14 PM,39.2,30.2,70,29.93,7.0,SE,9.2,-,N/A,,Overcast,140,2013-11-20 23:14:00
5:34 PM,39.2,32.0,75,29.94,7.0,SE,10.4,-,N/A,,Overcast,130,2013-11-20 23:34:00
5:54 PM,39.2,32.0,75,29.95,7.0,SE,9.2,-,N/A,,Overcast,140,2013-11-20 23:54:00
6:14 PM,39.2,32.0,75,29.95,7.0,SSE,9.2,-,N/A,,Overcast,150,2013-11-21 00:14:00
6:34 PM,39.2,32.0,75,29.96,5.0,SSE,10.4,-,N/A,,Haze,150,2013-11-21 00:34:00
6:54 PM,39.2,32.0,75,29.96,5.0,SSE,10.4,-,N/A,,Haze,150,2013-11-21 00:54:00
7:14 PM,39.2,32.0,75,29.97,5.0,SSE,9.2,-,N/A,,Haze,160,2013-11-21 01:14:00
7:34 PM,39.2,32.0,75,29.97,5.0,SSE,12.7,-,N/A,,Haze,150,2013-11-21 01:34:00
7:54 PM,39.2,32.0,75,29.98,5.0,SSE,9.2,-,N/A,,Haze,150,2013-11-21 01:54:00
8:14 PM,39.2,33.8,81,29.98,5.0,SSE,8.1,-,N/A,,Haze,150,2013-11-21 02:14:00
8:34 PM,39.2,32.0,75,29.99,5.0,SSE,8.1,-,N/A,,Haze,160,2013-11-21 02:34:00
8:54 PM,39.2,33.8,81,29.99,5.0,SSE,9.2,-,N/A,,Haze,150,2013-11-21 02:54:00
9:14 PM,39.2,33.8,81,29.99,5.0,SE,6.9,-,N/A,,Haze,140,2013-11-21 03:14:00
9:34 PM,39.2,33.8,81,30.00,5.0,SSE,4.6,-,N/A,,Haze,160,2013-11-21 03:34:00
9:54 PM,39.2,33.8,81,30.01,5.0,SSE,5.8,-,N/A,,Haze,150,2013-11-21 03:54:00
10:14 PM,39.2,33.8,81,30.01,5.0,SSE,4.6,-,N/A,,Haze,160,2013-11-21 04:14:00
10:34 PM,39.2,33.8,81,30.01,4.0,SSE,5.8,-,N/A,,Haze,150,2013-11-21 04:34:00
10:54 PM,39.2,33.8,81,30.02,4.0,South,4.6,-,N/A,,Haze,170,2013-11-21 04:54:00
11:14 PM,39.2,33.8,81,30.02,4.0,SSE,4.6,-,N/A,,Haze,160,2013-11-21 05:14:00
11:34 PM,39.2,33.8,81,30.02,4.0,SE,3.5,-,N/A,,Haze,140,2013-11-21 05:34:00
11:54 PM,39.2,33.8,81,30.03,4.0,SSE,4.6,-,N/A,,Haze,150,2013-11-21 05:54:00